EHI
21 25 29 27 20 17 18 16 10 6 7 8 8 8 9 12 14 11 11 17 24 24 20 19 18 15 13 11 9 7 6 7 7 5 3 2 1 0 0 0 0 0 0
27 29 30 28 23 18 18 18 14 11 12 12 11 12 14 16 18 17 13 16 23 24 21 18 17 15 12 9 7 6 6 6 5 4 3 2 0 0 0 0 0 0 0
37 36 32 27 24 21 21 22 20 17 16 15 15 19 21 21 22 20 17 16 19 20 21 19 16 14 10 7 5 6 7 6 5 3 3 2 1 0 0 0 0 0 0
43 40 34 27 24 23 23 21 19 18 17 16 16 19 21 20 18 16 16 16 16 15 16 17 15 13 11 8 6 7 8 8 6 5 4 3 1 0 0 0 0 0 0
38 37 33 27 24 22 19 15 15 17 17 14 12 12 13 12 11 9 10 12 13 12 10 10 12 12 11 9 8 8 8 8 7 5 4 3 2 1 0 0 0 0 0
30 31 30 26 23 19 15 12 12 13 14 11 8 6 6 6 6 6 6 8 11 10 7 6 8 9 9 8 7 7 7 6 5 4 4 3 3 1 0 0 0 0 0
23 24 24 23 20 17 13 11 11 11 11 10 8 5 3 2 4 5 5 6 8 8 6 5 6 7 6 5 4 5 5 5 4 3 3 3 3 2 1 0 0 0 0
16 16 17 18 17 14 12 11 12 12 10 9 8 6 2 0 1 3 5 5 5 4 3 3 4 5 4 4 3 2 3 4 4 4 4 4 3 3 2 1 0 0 0
12 11 11 13 14 13 12 11 10 9 8 6 6 4 3 1 1 2 3 3 2 1 0 0 1 2 2 2 2 1 1 3 3 4 5 5 4 3 2 1 0 0 0
10 10 10 11 11 12 12 11 8 5 3 3 3 4 4 3 1 1 1 1 1 0 0 0 0 0 0 1 2 2 1 1 1 2 3 4 4 3 2 1 0 0 0
10 10 10 10 10 10 10 8 6 3 1 1 2 3 3 2 0 0 0 0 0 0 0 0 0 0 0 0 1 1 1 0 0 1 1 1 1 1 1 1 1 0 0
11 10 10 10 9 9 7 5 3 1 0 0 1 1 1 0 0 0 0 0 0 0 0 0 0 0 0 0 0 0 0 0 0 0 0 0 0 0 0 0 0 0 0
10 10 9 9 8 7 4 2 1 0 0 0 0 0 0 0 0 0 0 0 0 0 0 0 0 0 0 0 0 0 0 0 0 0 0 0 0 0 0 0 0 0 0
9 8 8 7 7 6 3 1 0 0 0 0 0 0 0 0 0 0 0 0 0 0 0 0 0 0 0 0 0 0 0 0 0 0 0 0 0 0 0 0 0 0 0
7 7 6 6 6 5 2 1 1 1 1 1 1 0 0 0 0 0 0 0 0 0 0 0 0 0 0 0 0 0 0 0 0 0 0 0 0 0 0 0 0 0 0
6 6 5 5 5 4 3 2 2 2 2 2 1 0 0 0 0 0 0 0 0 0 0 0 0 0 0 0 0 0 0 0 0 0 0 0 0 0 0 0 0 0 0
4 4 4 4 4 3 3 3 3 3 2 1 1 0 0 0 0 0 0 0 0 0 0 0 0 0 0 0 0 0 0 0 0 0 0 0 0 0 0 0 0 0 0
2 2 3 3 3 3 2 3 3 3 2 1 0 0 0 0 0 0 0 0 0 0 0 0 0 0 0 0 0 0 0 0 0 0 0 0 0 0 0 0 0 0 0
1 1 1 2 2 1 1 1 2 2 1 1 0 0 0 0 0 0 0 0 0 0 0 0 0 0 0 0 0 0 0 0 0 0 0 0 0 0 0 0 0 0 0
0 0 0 1 1 0 0 0 1 1 0 0 0 0 0 0 0 0 0 0 0 0 0 0 0 0 0 0 0 0 0 0 0 0 0 0 0 0 0 0 0 0 0
0 0 0 0 0 0 0 0 0 0 0 0 0 0 0 0 0 0 0 0 0 0 0 0 0 0 0 0 0 0 0 0 0 0 0 0 0 0 0 0 0 0 0
0 0 0 0 0 0 0 0 0 0 0 0 0 0 0 0 0 0 0 0 0 0 0 0 0 0 0 0 0 0 0 0 0 0 0 0 0 0 0 0 0 0 0
0 0 0 0 0 0 0 0 0 0 0 0 0 0 0 0 0 0 0 0 0 0 0 0 0 0 0 0 0 0 0 0 0 0 0 0 0 0 0 0 0 0 0
0 0 0 0 0 0 0 0 0 0 0 0 0 0 0 0 0 0 0 0 0 0 0 0 0 0 0 0 0 0 0 0 0 0 0 0 0 0 0 0 0 0 0
0 0 0 0 0 0 0 0 0 0 0 0 0 0 0 0 0 0 0 0 0 0 0 0 0 0 0 0 0 0 0 0 0 0 0 0 0 0 0 0 0 0 0
0 0 0 0 0 0 0 0 0 0 0 0 0 0 0 0 0 0 0 0 0 0 0 0 0 0 0 0 0 0 0 0 0 0 0 0 0 0 0 0 0 0 0
Wind_Speed
1 0 1 1 2 2 2 3 4 3 3 3 3 3 3 1 2 3 4 8 9 8 6 6 7 7 8 8 8 8 8 8 7 7 7 7 6 6 6 5 6 5 5
1 1 1 0 1 1 1 2 3 2 2 2 2 2 2 1 1 2 4 6 9 8 7 6 7 7 8 8 9 9 9 8 8 7 7 7 7 6 6 6 5 5 5
1 1 1 1 1 2 2 1 2 2 2 2 2 1 0 0 1 2 3 3 4 7 7 6 6 7 8 9 9 9 9 9 9 8 7 7 7 6 6 6 6 6 6
1 1 1 1 2 2 1 1 1 2 2 1 1 1 1 0 1 1 2 2 3 3 5 7 6 6 8 8 9 9 9 9 9 9 8 8 7 7 6 6 6 6 6
2 2 1 1 2 1 1 2 1 2 2 1 0 0 1 1 0 0 1 2 2 3 3 5 7 6 7 8 8 9 10 9 9 9 9 8 7 7 7 7 6 6 6
2 2 1 1 2 1 1 1 2 2 2 1 1 1 1 1 0 0 0 1 2 3 4 4 4 5 7 8 8 8 9 9 9 9 8 8 8 7 7 7 7 6 6
4 3 3 2 2 1 1 2 1 2 2 1 1 0 1 1 1 1 1 1 2 2 3 4 3 3 3 7 8 9 9 9 9 8 8 8 7 7 7 6 6 6 5
4 3 3 3 3 2 1 2 1 1 2 1 1 1 1 0 2 2 1 1 1 2 3 3 3 4 3 2 5 8 8 8 9 9 8 7 7 7 7 6 5 5 5
3 3 4 3 3 2 2 2 1 2 1 1 1 1 1 1 1 1 2 2 2 1 2 3 4 4 4 3 3 5 7 7 8 9 8 8 8 8 7 6 6 5 4
3 3 3 3 3 3 3 3 2 2 1 1 1 0 0 2 2 1 1 1 2 2 2 3 4 4 4 3 4 7 7 6 7 7 8 8 8 8 7 6 5 5 4
3 3 3 3 3 2 3 4 3 2 1 1 1 0 0 1 1 2 2 1 2 2 2 2 3 3 4 3 3 6 7 6 6 6 7 7 7 7 7 6 5 4 4
3 5 4 4 3 3 3 3 3 3 2 1 1 1 1 1 1 1 2 2 2 1 2 2 2 2 3 3 5 8 9 8 7 6 6 6 6 6 6 5 5 4 4
3 5 5 4 3 3 3 2 2 2 2 1 1 1 1 1 1 1 3 2 1 1 1 1 1 1 3 3 4 9 9 8 8 7 6 6 6 6 6 6 5 5 5
3 4 4 4 4 4 4 3 2 2 2 1 1 1 0 1 1 2 2 3 2 1 1 1 1 1 2 3 5 7 6 8 8 7 6 5 5 5 5 6 5 5 5
4 5 4 4 4 4 4 3 2 2 2 2 1 2 2 1 1 1 2 3 3 3 2 2 2 1 2 3 5 4 5 7 8 7 6 5 5 4 5 5 5 5 4
4 4 4 4 4 4 4 4 3 3 2 2 2 2 2 2 1 1 2 1 1 2 2 2 2 2 3 3 5 3 5 9 7 7 6 5 5 4 4 4 4 4 3
5 4 4 4 4 4 4 4 3 3 3 3 3 3 3 2 2 1 1 1 1 2 3 2 2 3 3 3 3 2 4 4 4 7 6 6 5 5 5 5 4 4 4
4 4 4 4 4 4 4 4 4 5 4 4 3 4 3 3 3 1 1 2 1 2 4 5 3 2 3 3 3 2 3 4 4 7 7 7 7 7 6 6 5 5 4
5 5 5 5 5 5 5 5 5 4 4 4 4 4 4 4 3 2 2 2 2 3 3 5 4 2 2 3 3 2 1 2 4 6 7 7 7 8 8 7 7 6 6
4 5 5 5 5 6 7 7 6 5 5 5 5 5 4 5 4 3 3 3 3 3 4 4 4 3 2 2 2 2 1 1 1 4 5 6 7 8 8 8 8 8 8
5 5 6 6 6 7 8 7 6 6 5 5 5 5 5 7 7 4 4 3 3 3 2 3 3 2 2 2 2 1 2 2 1 2 2 4 4 4 5 8 9 10 10
5 5 6 7 8 8 10 12 8 5 5 5 5 4 5 6 7 7 6 6 4 3 3 2 3 3 2 1 1 1 1 1 1 1 2 2 4 5 5 5 10 12 12
5 5 6 6 7 9 12 13 12 6 5 5 4 4 5 7 7 5 4 4 4 4 2 2 3 2 2 2 1 1 1 1 1 2 1 2 2 3 4 6 13 14 13
4 4 5 6 6 9 12 12 11 6 4 5 5 6 6 6 7 5 3 4 5 4 3 3 3 3 3 2 2 1 1 1 1 2 2 1 2 2 2 2 10 12 13
3 4 4 5 5 7 10 11 10 4 4 6 7 8 7 6 9 9 5 5 5 4 5 6 5 3 3 2 2 1 1 1 1 1 1 1 1 1 1 2 6 12 13
3 4 5 5 5 5 8 10 10 4 4 3 4 6 10 8 9 9 5 5 5 4 3 3 2 1 1 2 2 1 1 1 1 0 1 1 1 1 1 1 2 4 6
Wind_Direction
300 271 150 162 205 205 213 237 241 256 262 244 231 228 244 249 139 139 135 144 143 149 164 174 172 175 173 171 165 161 157 151 146 146 142 139 137 135 133 130 124 120 118
25 2 1 0 287 279 231 249 270 262 271 268 254 252 259 294 101 120 133 143 146 154 166 170 172 171 169 166 161 159 154 150 146 141 143 142 139 137 136 131 126 121 116
24 344 342 312 312 308 286 275 295 292 264 258 264 280 267 259 121 132 140 138 148 158 161 162 170 173 168 167 164 159 154 149 145 142 138 138 139 137 136 134 131 125 119
19 359 321 313 308 299 310 294 285 290 281 268 276 299 309 32 133 148 149 144 145 144 150 152 154 165 165 165 166 160 156 150 146 143 140 136 136 137 134 133 130 124 120
4 334 304 302 290 294 306 302 302 276 273 273 238 283 0 12 41 195 160 151 136 133 138 145 144 146 151 154 156 157 157 153 147 143 139 137 134 132 131 129 126 124 123
346 316 286 291 292 286 279 276 280 267 248 222 272 8 22 1 340 29 112 99 115 138 137 133 136 137 140 143 140 148 154 153 149 148 143 137 131 128 124 125 126 125 124
359 346 337 325 308 283 279 280 262 271 260 202 156 80 20 39 50 40 69 89 96 111 115 122 130 128 138 143 139 135 139 140 138 140 140 136 130 127 124 123 128 127 124
2 357 358 344 328 310 289 276 263 270 264 233 180 146 172 46 43 20 57 93 98 83 95 109 111 115 116 120 121 134 142 142 139 139 141 139 137 133 128 126 125 129 128
12 1 348 341 331 327 315 300 282 257 254 258 218 163 170 176 85 30 43 61 74 84 92 91 97 100 105 101 111 120 128 136 142 143 143 143 141 135 130 129 124 120 127
15 10 353 343 340 347 339 322 333 296 245 234 279 273 193 140 154 142 55 51 64 65 76 93 92 87 92 94 103 113 119 128 138 144 147 144 141 135 133 129 125 118 113
20 12 6 353 345 354 353 343 330 319 263 239 237 252 23 48 105 155 161 123 70 47 63 79 89 100 100 97 101 115 118 119 129 140 147 149 147 147 146 146 141 133 128
18 14 11 4 358 5 1 351 343 348 329 299 268 201 182 164 169 154 154 159 134 92 67 70 80 97 106 112 125 123 122 123 126 130 136 138 139 141 144 149 150 144 135
17 12 9 4 3 2 349 343 356 349 339 331 299 243 208 189 159 149 145 152 144 138 102 82 79 125 131 127 138 138 134 132 126 119 122 127 130 130 132 133 129 125 120
15 8 5 6 7 1 355 354 353 350 352 353 354 16 47 66 105 131 141 147 144 137 135 140 121 138 136 140 144 143 140 141 135 133 133 133 134 136 138 132 126 119 114
20 18 11 9 7 5 355 356 14 12 10 21 32 52 62 72 97 103 128 161 156 160 164 155 148 149 144 132 148 149 144 145 146 142 139 136 135 145 146 142 140 136 133
23 17 16 12 12 11 8 7 15 19 29 37 45 59 62 56 75 106 138 170 170 158 150 154 157 157 151 146 154 159 149 156 158 157 156 154 153 150 152 159 158 158 156
17 18 18 19 22 24 18 13 12 25 39 39 39 56 65 64 66 75 102 103 86 107 121 119 119 129 134 138 137 148 144 161 167 172 175 170 167 172 179 181 184 188 191
20 18 17 21 27 28 26 22 20 31 37 39 42 55 56 57 65 70 72 81 93 111 129 131 131 137 143 146 147 160 168 173 162 170 177 177 181 187 189 189 193 195 198
24 22 22 26 27 30 29 26 31 34 40 44 45 53 52 53 51 52 63 68 73 86 106 125 133 136 138 151 145 171 190 151 172 168 180 188 193 194 194 195 198 199 201
29 26 30 29 32 38 31 25 26 28 42 46 46 49 51 52 47 46 62 63 78 91 104 118 126 134 132 142 144 167 191 182 190 178 178 185 196 201 204 204 205 206 208
37 35 39 40 39 45 29 20 20 31 42 49 53 55 61 70 62 54 62 56 68 91 108 124 128 123 124 137 160 194 180 185 209 174 170 190 186 198 209 216 216 216 216
35 39 45 48 46 39 22 22 23 23 31 45 52 56 68 75 73 68 71 72 73 84 84 97 115 122 124 125 125 157 152 146 190 199 176 217 188 197 205 202 207 211 215
47 47 50 57 59 40 25 21 18 19 34 39 40 44 50 54 48 50 70 89 79 78 103 107 103 111 111 110 105 105 93 128 183 212 192 240 216 204 214 204 195 204 211
46 50 56 59 62 46 28 20 11 20 39 40 45 50 60 52 32 19 51 74 76 64 70 87 83 82 84 69 55 83 163 241 260 234 186 224 240 236 230 176 194 202 211
49 57 62 63 62 53 30 20 12 17 46 48 50 48 52 55 28 26 41 60 70 69 78 90 92 94 93 82 52 24 318 289 269 244 207 213 246 239 228 206 206 208 214
49 60 65 62 61 55 35 23 12 19 40 58 67 72 57 44 28 30 38 45 51 38 43 89 111 152 188 203 220 257 297 325 332 308 235 235 275 280 283 252 205 191 217